TimeCST,TemperatureF,Dew PointF,Humidity,Sea Level PressureIn,VisibilityMPH,Wind Direction,Wind SpeedMPH,Gust SpeedMPH,PrecipitationIn,Events,Conditions,WindDirDegrees,DateUTC
12:54 AM,27.0,5.0,39,30.09,10.0,South,10.4,-,N/A,,Clear,190,2014-01-30 06:54:00
1:54 AM,26.1,6.1,43,30.09,10.0,South,5.8,-,N/A,,Clear,190,2014-01-30 07:54:00
2:54 AM,25.0,7.0,46,30.07,10.0,South,4.6,-,N/A,,Clear,180,2014-01-30 08:54:00
3:54 AM,25.0,7.0,46,30.04,10.0,South,10.4,17.3,N/A,,Clear,170,2014-01-30 09:54:00
4:54 AM,26.1,8.1,47,30.02,10.0,South,9.2,-,N/A,,Clear,180,2014-01-30 10:54:00
5:54 AM,27.0,8.1,45,30.01,10.0,South,9.2,-,N/A,,Clear,190,2014-01-30 11:54:00
6:54 AM,27.0,8.1,45,29.97,10.0,South,9.2,18.4,N/A,,Mostly Cloudy,170,2014-01-30 12:54:00
7:54 AM,28.0,9.0,45,29.95,10.0,South,12.7,21.9,N/A,,Mostly Cloudy,170,2014-01-30 13:54:00
8:54 AM,30.9,8.1,38,29.91,10.0,South,10.4,23.0,N/A,,Scattered Clouds,180,2014-01-30 14:54:00
9:54 AM,36.0,6.1,29,29.88,10.0,South,11.5,25.3,N/A,,Clear,190,2014-01-30 15:54:00
10:54 AM,41.0,3.9,21,29.85,10.0,South,17.3,32.2,N/A,,Clear,190,2014-01-30 16:54:00
11:54 AM,43.0,3.9,20,29.83,10.0,SSW,17.3,33.4,N/A,,Mostly Cloudy,200,2014-01-30 17:54:00
12:54 PM,46.0,3.9,18,29.79,10.0,SSW,19.6,34.5,N/A,,Mostly Cloudy,210,2014-01-30 18:54:00
1:54 PM,45.0,6.1,20,29.78,10.0,SSW,17.3,26.5,N/A,,Overcast,210,2014-01-30 19:54:00
2:54 PM,45.0,9.0,23,29.83,10.0,SW,13.8,26.5,N/A,,Overcast,220,2014-01-30 20:54:00
3:54 PM,45.0,9.0,23,29.85,10.0,SW,10.4,21.9,N/A,,Overcast,220,2014-01-30 21:54:00
4:54 PM,44.1,9.0,24,29.87,10.0,SSW,9.2,17.3,N/A,,Mostly Cloudy,210,2014-01-30 22:54:00
5:54 PM,42.1,9.0,26,29.88,10.0,South,6.9,-,N/A,,Mostly Cloudy,190,2014-01-30 23:54:00
6:54 PM,42.1,10.0,27,29.91,10.0,South,3.5,-,N/A,,Overcast,190,2014-01-31 00:54:00
7:54 PM,39.9,10.0,29,29.93,10.0,South,4.6,-,N/A,,Overcast,190,2014-01-31 01:54:00
8:54 PM,39.0,10.0,30,29.95,10.0,SW,3.5,-,N/A,,Overcast,230,2014-01-31 02:54:00
9:54 PM,37.0,12.0,36,29.96,10.0,Calm,Calm,-,N/A,,Overcast,0,2014-01-31 03:54:00
10:54 PM,37.0,12.0,36,29.97,10.0,Calm,Calm,-,N/A,,Mostly Cloudy,0,2014-01-31 04:54:00
11:54 PM,36.0,14.0,41,29.96,10.0,Calm,Calm,-,N/A,,Clear,0,2014-01-31 05:54:00